FENGYUN 1C DEB, 31099

Orbit data source: Space-Track

FENGYUN 1C DEB, 31099 is space debris in SSO originally from a launch on Mon, 10 May 1999 UTC launched from the Taiyaun Space Center, China (TSC). Fengyun 1C debris stems from the Chinese weather satellite Fengyun-1C, which was intentionally destroyed by a Chinese anti-satellite missile in 2007. This event dramatically increased the amount of space debris, with thousands of trackable fragments posing hazards to satellites and human spaceflight. The Fengyun 1C debris cloud has become a focal point in discussions about space sustainability and the need for international regulations to prevent the creation of new debris.

Loading next visibility...
Identifier
31099, 1999-025BGV
Orbit
SSO
Country
Flag of CNCN / PRC
Related business
Manufacturer
Unknown
Mission
Spacecraft
Bus & Motor
Unknown
Mass
Unknown
Launch date (UTC)
1999-05-10 (27 years ago)
Launch vehicle
Unknown
Launch site
Taiyaun Space Center, China (TSC)
Object type
Payload
Rocket body
Debris
Shape & HBR
Unknown shape, 0.1 m
Radar Cross Section
Small (<0.1 m²)

Expand to show TLE details & history
Last TLE update: 7 hours ago

TLE from 7 hours ago
0 FENGYUN 1C DEB
1 31099U 99025BGV 26122.22163881  .00000498  00000-0  21460-3 0  9998
2 31099  98.9270  22.8998 0062205 233.2149 279.0736 14.28127396994768
Epoch: 2026-05-02T05:19Z
TLE epoch observation values (Epoch: 2026-05-02T05:19:09.593Z)
Latitude
28.08536°
Longitude
-92.25023°
Altitude
794.679 km
Speed
7.462 km/s
True Right ascension
13h 50m 43s
True Declination
27° 56' 37"
Sunlit
Object was in full shadow at epoch
Visualization orbit readout
Latitude
Unknown
Longitude
Unknown
Altitude
Unknown
Speed
Unknown
Apparent Right ascension
Unknown
Apparent Declination
Unknown
Sunlit
N/A
Visualization observer readout
Local Sidereal Time
20:02:54
Azimuth
Unknown
Elevation
Unknown
Doppler factor
Unknown
Orbital elements
Apogee altitude
839.777 km
Perigee altitude
750.534 km
Semi-major axis
7,173.292 km
Eccentricity
0.00622
Inclination
98.927°
RAAN
22.8998°
Arg. of periapsis
233.2149°
True anomaly
278.36886°
Mean anomaly
279.0736°
Eccentric anomaly
278.72131°
Mean motion
3.57244 °/min
Orbital period
100.77 mins
BSTAR
0.0002146
Loading maneuver chart data...
Computing Atmospheric mass density...

Documentation

Showing up to 5 results
|